{"data":{"norad_id":51131,"epoch":"2026-05-25T04:18:41.828256Z","epoch_age_seconds":62553,"freshness":"FRESH","line1":"1 51131U 22005AD  26145.17965079  .00000180  00000+0  29384-4 0  9990","line2":"2 51131  53.2146 315.7439 0001156  92.2626 267.8498 15.08834147240276","mean_motion":15.08834147,"eccentricity":0.0001156,"inclination_deg":53.2146,"raan_deg":315.7439,"arg_perigee_deg":92.2626,"mean_anomaly_deg":267.8498,"bstar":2.9384e-5,"rev_number":24027,"period_min":95.437924894737,"perigee_km":538.96157026032,"apogee_km":540.56098834249,"semimajor_km":6917.8982793014,"source":"CELESTRAK","updated_at":"2026-05-25T13:38:16.912445Z"}}